EW0415 Weather Reports


time (UTC)temp
C
wind
direction
speed
KPH
gust
KPH
rain 1hr
cm
rain 24hr
cm
rain mn
cm
humidity
%
barometer
mb
20260509093510 13 0 0.0 0.0 0.00 0.00 0.00 78 1030.1
20260509093030 13 0 0.0 0.0 0.00 0.00 0.00 78 1030.1
20260509092512 13 0 0.0 0.0 0.00 0.00 0.00 78 1030.1
20260509092009 13 0 0.0 0.0 0.00 0.00 0.00 78 1029.9
20260509091533 14 0 0.0 0.0 0.00 0.00 0.00 78 1030.0
20260509091010 14 0 0.0 0.0 0.00 0.00 0.00 78 1030.0
20260509090510 14 0 0.0 0.0 0.00 0.00 0.00 78 1030.0
20260509090028 15 0 0.0 0.0 0.00 0.00 0.00 78 1030.0
20260509085510 15 0 0.0 0.0 0.00 0.00 0.00 78 1030.0
20260509085010 15 0 0.0 0.0 0.00 0.00 0.00 78 1029.9
20260509084530 15 0 0.0 0.0 0.00 0.00 0.00 78 1029.9
20260509084010 15 0 0.0 0.0 0.00 0.00 0.00 78 1029.9
20260509083512 15 0 0.0 0.0 0.00 0.00 0.00 78 1029.9
20260509083039 15 0 0.0 0.0 0.00 0.00 0.00 78 1029.7
20260509082511 16 0 0.0 0.0 0.00 0.00 0.00 78 1029.7
20260509082011 16 0 0.0 0.0 0.00 0.00 0.00 78 1029.6
20260509081532 16 0 0.0 0.0 0.00 0.00 0.00 78 1029.6
20260509081009 16 0 0.0 1.6 0.00 0.00 0.00 78 1029.5
20260509080513 16 0 0.0 1.6 0.00 0.00 0.00 78 1029.5
20260509080034 16 0 0.0 3.2 0.00 0.00 0.00 78 1029.5
20260509075509 16 0 0.0 3.2 0.00 0.00 0.00 78 1029.4
20260509075010 16 0 0.0 3.2 0.00 0.00 0.00 78 1029.5
20260509074531 16 245 0.0 4.8 0.00 0.00 0.00 78 1029.5
20260509074014 17 0 0.0 4.8 0.00 0.00 0.00 78 1029.6
20260509073511 17 245 0.0 8.0 0.00 0.00 0.00 78 1029.5
20260509073030 17 0 1.6 8.0 0.00 0.00 0.00 77 1029.5
20260509072511 17 0 0.0 3.2 0.00 0.00 0.00 77 1029.5
20260509072011 17 246 0.0 4.8 0.00 0.00 0.00 77 1029.5
20260509071530 17 246 1.6 4.8 0.00 0.00 0.00 77 1029.4
20260509071010 17 245 0.0 4.8 0.00 0.00 0.00 76 1029.4
20260509070511 17 246 0.0 4.8 0.00 0.00 0.00 76 1029.4
20260509070028 17 246 0.0 6.4 0.00 0.00 0.00 76 1029.5
20260509065513 17 246 1.6 8.0 0.00 0.00 0.00 75 1029.3
20260509065010 17 0 0.0 8.0 0.00 0.00 0.00 75 1029.5
20260509064554 17 244 1.6 6.4 0.00 0.00 0.00 75 1029.3
20260509064009 17 244 0.0 6.4 0.00 0.00 0.00 74 1029.3
20260509063512 17 0 0.0 6.4 0.00 0.00 0.00 74 1029.4
20260509063034 18 244 0.0 6.4 0.00 0.00 0.00 74 1029.4
20260509062511 18 0 0.0 6.4 0.00 0.00 0.00 74 1029.4
20260509062011 18 244 0.0 6.4 0.00 0.00 0.00 74 1029.4
20260509061540 18 244 1.6 8.0 0.00 0.00 0.00 74 1029.4
20260509061011 18 247 1.6 8.0 0.00 0.00 0.00 74 1029.3
20260509060511 18 245 1.6 8.0 0.00 0.00 0.00 74 1029.3
20260509060031 18 249 1.6 8.0 0.00 0.00 0.00 75 1029.2
20260509055511 18 251 1.6 11.3 0.00 0.00 0.00 75 1029.3
20260509055010 18 246 3.2 11.3 0.00 0.00 0.00 76 1029.3
20260509054530 18 248 3.2 8.0 0.00 0.00 0.00 77 1029.3
20260509054011 17 0 1.6 8.0 0.00 0.00 0.00 77 1029.4
20260509053509 17 252 1.6 8.0 0.00 0.00 0.00 77 1029.2
20260509053049 17 250 1.6 8.0 0.00 0.00 0.00 77 1029.4
20260509052511 17 249 0.0 6.4 0.00 0.00 0.00 77 1029.4
20260509052009 17 249 3.2 6.4 0.00 0.00 0.00 77 1029.5
20260509051527 17 249 1.6 4.8 0.00 0.00 0.00 77 1029.4
20260509051012 17 0 0.0 6.4 0.00 0.00 0.00 77 1029.5
20260509050509 17 0 0.0 6.4 0.00 0.00 0.00 77 1029.4
20260509050032 17 248 1.6 8.0 0.00 0.00 0.00 77 1029.5
20260509045512 17 250 1.6 8.0 0.00 0.00 0.00 77 1029.4
20260509045011 17 0 0.0 4.8 0.00 0.00 0.00 77 1029.4
20260509044533 17 249 1.6 6.4 0.00 0.00 0.00 77 1029.6
20260509044011 17 249 1.6 6.4 0.00 0.00 0.00 77 1029.5
20260509043510 17 248 1.6 6.4 0.00 0.00 0.00 77 1029.6
20260509043033 17 248 1.6 6.4 0.00 0.00 0.00 77 1029.7
20260509042512 17 248 0.0 4.8 0.00 0.00 0.00 77 1029.7
20260509042014 17 0 0.0 8.0 0.00 0.00 0.00 77 1029.7
20260509041528 17 248 0.0 8.0 0.00 0.00 0.00 78 1029.8
20260509041009 17 0 0.0 6.4 0.00 0.00 0.00 78 1029.9
20260509040511 17 247 0.0 8.0 0.00 0.00 0.00 78 1029.8
20260509040030 17 247 1.6 8.0 0.00 0.00 0.00 78 1029.8
20260509035509 17 0 1.6 4.8 0.00 0.00 0.00 78 1029.8
20260509035010 17 248 1.6 4.8 0.00 0.00 0.00 78 1029.8
20260509034534 17 248 1.6 11.3 0.00 0.00 0.00 78 1029.8
20260509034010 17 248 3.2 11.3 0.00 0.00 0.00 78 1029.9
20260509033512 17 246 1.6 4.8 0.00 0.00 0.00 78 1030.0
20260509033029 17 0 0.0 4.8 0.00 0.00 0.00 78 1030.1
20260509032515 17 246 0.0 4.8 0.00 0.00 0.00 78 1030.1
20260509032023 17 246 1.6 3.2 0.00 0.00 0.00 78 1030.3
20260509031533 17 0 0.0 8.0 0.00 0.00 0.00 78 1030.3
20260509031012 17 0 0.0 8.0 0.00 0.00 0.00 79 1030.4
20260509030514 17 0 0.0 0.0 0.00 0.00 0.00 79 1030.5
20260509030030 17 0 0.0 0.0 0.00 0.00 0.00 79 1030.6
20260509025511 17 0 0.0 6.4 0.00 0.00 0.00 79 1030.6
20260509025013 16 0 0.0 6.4 0.00 0.00 0.00 79 1030.8
20260509024530 16 0 3.2 6.4 0.00 0.00 0.00 79 1030.9
20260509024009 16 244 0.0 3.2 0.00 0.00 0.00 79 1031.0
20260509023511 16 0 0.0 4.8 0.00 0.00 0.00 79 1031.1
20260509023032 16 0 0.0 8.0 0.00 0.00 0.00 79 1031.1
20260509022517 16 244 3.2 8.0 0.00 0.00 0.00 79 1031.2
20260509022012 16 245 1.6 4.8 0.00 0.00 0.00 79 1031.3
20260509021528 16 245 1.6 4.8 0.00 0.00 0.00 79 1031.3
20260509021009 16 245 0.0 4.8 0.00 0.00 0.00 79 1031.5
20260509020511 16 0 0.0 4.8 0.00 0.00 0.00 80 1031.4
20260509020036 16 0 1.6 4.8 0.00 0.00 0.00 80 1031.6
20260509015511 16 244 0.0 6.4 0.00 0.00 0.00 81 1031.5
20260509015013 16 0 0.0 6.4 0.00 0.00 0.00 81 1031.7
20260509014534 16 244 1.6 6.4 0.00 0.00 0.00 81 1031.7
20260509014012 16 244 1.6 6.4 0.00 0.00 0.00 82 1031.9
20260509013511 16 244 1.6 6.4 0.00 0.00 0.00 82 1032.0
20260509013028 16 0 0.0 4.8 0.00 0.00 0.00 83 1031.9
20260509012511 16 244 0.0 4.8 0.00 0.00 0.00 83 1032.0
20260509012013 16 0 0.0 4.8 0.00 0.00 0.00 84 1032.0
20260509011528 16 0 0.0 4.8 0.00 0.00 0.00 84 1032.1
20260509011010 16 0 0.0 1.6 0.00 0.00 0.00 85 1032.1
20260509010510 16 0 0.0 4.8 0.00 0.00 0.00 85 1032.1
20260509010028 16 0 0.0 4.8 0.00 0.00 0.00 86 1032.1
20260509005515 16 243 0.0 4.8 0.00 0.00 0.00 86 1032.1
20260509005010 16 0 0.0 6.4 0.00 0.00 0.00 86 1032.2
20260509004536 16 0 0.0 6.4 0.00 0.00 0.00 87 1032.1
20260509004009 16 243 0.0 0.0 0.00 0.00 0.00 88 1032.1
20260509003540 15 0 0.0 0.0 0.00 0.00 0.00 88 1032.1
20260509003033 15 0 0.0 0.0 0.00 0.00 0.00 88 1032.1
20260509002514 15 0 0.0 0.0 0.00 0.00 0.00 89 1032.2
20260509002010 15 0 0.0 0.0 0.00 0.00 0.00 89 1032.2
20260509001528 15 0 0.0 0.0 0.00 0.00 0.00 89 1032.3
20260509001012 15 0 0.0 0.0 0.00 0.00 0.00 89 1032.3
20260509000514 15 0 0.0 0.0 0.00 0.00 0.00 89 1032.4
20260509000028 15 0 0.0 0.0 0.00 0.00 0.00 89 1032.3
20260508235509 14 0 0.0 0.0 0.00 0.00 0.00 90 1032.3
20260508235011 14 0 0.0 0.0 0.00 0.00 0.00 89 1032.4
20260508234528 13 0 0.0 0.0 0.00 0.00 0.00 89 1032.3
20260508234010 13 0 0.0 0.0 0.00 0.00 0.00 90 1032.3
20260508233512 13 0 0.0 0.0 0.00 0.00 0.00 90 1032.3
20260508233030 12 0 0.0 0.0 0.00 0.00 0.00 89 1032.3
20260508232509 12 0 0.0 0.0 0.00 0.00 0.00 89 1032.3
20260508232010 12 0 0.0 0.0 0.00 0.00 0.00 89 1032.2
20260508231529 11 0 0.0 0.0 0.00 0.00 0.00 89 1032.2
20260508231010 11 0 0.0 0.0 0.00 0.00 0.00 88 1032.1
20260508230511 11 0 0.0 0.0 0.00 0.00 0.00 88 1032.1
20260508230026 11 0 0.0 0.0 0.00 0.00 0.00 88 1032.0
20260508225516 10 0 0.0 0.0 0.00 0.00 0.00 88 1032.0
20260508225010 10 0 0.0 0.0 0.00 0.00 0.00 88 1032.0
20260508224530 10 0 0.0 0.0 0.00 0.00 0.00 88 1031.8
20260508224009 9 0 0.0 0.0 0.00 0.00 0.00 87 1031.8
20260508223508 8 0 0.0 0.0 0.00 0.00 0.00 87 1031.7
20260508223039 8 0 0.0 0.0 0.00 0.00 0.00 87 1031.7
20260508222509 8 0 0.0 0.0 0.00 0.00 0.00 87 1031.8
20260508222011 8 0 0.0 0.0 0.00 0.00 0.00 86 1031.8
20260508221532 8 0 0.0 0.0 0.00 0.00 0.00 86 1031.8
20260508221010 8 0 0.0 0.0 0.00 0.00 0.00 86 1031.7
20260508220510 8 0 0.0 0.0 0.00 0.00 0.00 86 1031.7
20260508220032 8 0 0.0 0.0 0.00 0.00 0.00 86 1031.8
20260508215510 8 0 0.0 0.0 0.00 0.00 0.00 86 1031.9
20260508215009 8 0 0.0 0.0 0.00 0.00 0.00 86 1031.9
20260508214528 8 0 0.0 0.0 0.00 0.00 0.00 86 1031.8
20260508214013 8 0 0.0 0.0 0.00 0.00 0.00 86 1031.7
20260508213511 8 0 0.0 0.0 0.00 0.00 0.00 86 1031.5
20260508213030 8 0 0.0 0.0 0.00 0.00 0.00 86 1031.5
20260508212511 8 0 0.0 0.0 0.00 0.00 0.00 86 1031.3
20260508212031 8 0 0.0 0.0 0.00 0.00 0.00 86 1031.3
20260508211538 8 0 0.0 0.0 0.00 0.00 0.00 86 1031.3
20260508211010 8 0 0.0 0.0 0.00 0.00 0.00 86 1031.3
20260508210510 8 0 0.0 0.0 0.00 0.00 0.00 86 1031.3
20260508210030 8 0 0.0 0.0 0.00 0.00 0.00 86 1031.2
20260508205511 8 0 0.0 0.0 0.00 0.00 0.00 86 1031.1
20260508205010 8 0 0.0 0.0 0.00 0.00 0.00 86 1031.2
20260508204528 8 0 0.0 0.0 0.00 0.00 0.00 86 1031.2
20260508204011 8 0 0.0 0.0 0.00 0.00 0.00 86 1031.0
20260508203508 8 0 0.0 0.0 0.00 0.00 0.00 86 1031.0
20260508203028 8 0 0.0 0.0 0.00 0.00 0.00 85 1031.0
20260508202510 8 0 0.0 0.0 0.00 0.00 0.00 85 1030.9
20260508202009 8 0 0.0 0.0 0.00 0.00 0.00 85 1030.9
20260508201526 8 0 0.0 0.0 0.00 0.00 0.00 86 1030.9
20260508201011 8 0 0.0 0.0 0.00 0.00 0.00 86 1030.8
20260508200509 8 0 0.0 0.0 0.00 0.00 0.00 86 1030.7
20260508200030 8 0 0.0 0.0 0.00 0.00 0.00 86 1030.8
20260508195512 8 0 0.0 0.0 0.00 0.00 0.00 86 1030.7
20260508195012 8 0 0.0 0.0 0.00 0.00 0.00 85 1030.7
20260508194531 8 0 0.0 0.0 0.00 0.00 0.00 85 1030.8
20260508194010 8 0 0.0 0.0 0.00 0.00 0.00 85 1030.7
20260508193510 8 0 0.0 0.0 0.00 0.00 0.00 85 1030.6
20260508193034 8 0 0.0 0.0 0.00 0.00 0.00 85 1030.5
20260508192509 8 0 0.0 0.0 0.00 0.00 0.00 85 1030.4
20260508192012 8 0 0.0 0.0 0.00 0.00 0.00 85 1030.5
20260508191537 8 0 0.0 0.0 0.00 0.00 0.00 85 1030.4
20260508191009 8 0 0.0 0.0 0.00 0.00 0.00 85 1030.5
20260508190510 8 0 0.0 0.0 0.00 0.00 0.00 85 1030.4
20260508190032 8 0 0.0 0.0 0.00 0.00 0.00 85 1030.5
20260508185509 8 0 0.0 0.0 0.00 0.00 0.00 84 1030.5
20260508185010 8 0 0.0 0.0 0.00 0.00 0.00 85 1030.4
20260508184531 8 0 0.0 0.0 0.00 0.00 0.00 84 1030.3
20260508184009 8 0 0.0 0.0 0.00 0.00 0.00 84 1030.4
20260508183513 8 0 0.0 0.0 0.00 0.00 0.00 84 1030.4
20260508183033 8 0 0.0 0.0 0.00 0.00 0.00 84 1030.4
20260508182510 8 0 0.0 0.0 0.00 0.00 0.00 84 1030.6
20260508182011 8 0 0.0 0.0 0.00 0.00 0.00 84 1030.6
20260508181528 8 0 0.0 0.0 0.00 0.00 0.00 84 1030.7
20260508181010 8 0 0.0 0.0 0.00 0.00 0.00 84 1030.7
20260508180511 8 0 0.0 0.0 0.00 0.00 0.00 84 1030.8
20260508180028 8 0 0.0 0.0 0.00 0.00 0.00 84 1030.8
20260508175512 8 0 0.0 0.0 0.00 0.00 0.00 84 1030.8
20260508175013 8 0 0.0 0.0 0.00 0.00 0.00 84 1030.8
20260508174529 8 0 0.0 0.0 0.00 0.00 0.00 84 1030.8
20260508174008 8 0 0.0 0.0 0.00 0.00 0.00 83 1030.9
20260508173510 8 0 0.0 0.0 0.00 0.00 0.00 83 1030.9
20260508173027 8 0 0.0 0.0 0.00 0.00 0.00 83 1030.9
20260508172510 8 0 0.0 0.0 0.00 0.00 0.00 83 1031.0
20260508172010 8 0 0.0 0.0 0.00 0.00 0.00 83 1031.0
20260508171525 8 0 0.0 0.0 0.00 0.00 0.00 83 1030.9
20260508171014 8 0 0.0 0.0 0.00 0.00 0.00 83 1031.0
20260508170511 8 0 0.0 0.0 0.00 0.00 0.00 83 1031.0
20260508170026 9 0 0.0 0.0 0.00 0.00 0.00 83 1030.9
20260508165511 9 0 0.0 0.0 0.00 0.00 0.00 83 1030.9
20260508165010 9 0 0.0 0.0 0.00 0.00 0.00 83 1030.9
20260508164528 9 0 0.0 0.0 0.00 0.00 0.00 83 1030.9
20260508164009 9 0 0.0 0.0 0.00 0.00 0.00 83 1030.9
20260508163510 9 0 0.0 0.0 0.00 0.00 0.00 83 1030.8
20260508163035 9 0 0.0 0.0 0.00 0.00 0.00 83 1030.8
20260508162510 9 0 0.0 0.0 0.00 0.00 0.00 83 1030.8
20260508162010 9 0 0.0 0.0 0.00 0.00 0.00 83 1030.7
20260508161532 9 0 0.0 0.0 0.00 0.00 0.00 83 1030.8
20260508161012 9 0 0.0 0.0 0.00 0.00 0.00 83 1030.8
20260508160509 9 0 0.0 0.0 0.00 0.00 0.00 82 1031.0
20260508160028 9 0 0.0 0.0 0.00 0.00 0.00 82 1030.9
20260508155510 9 0 0.0 0.0 0.00 0.00 0.00 82 1030.9
20260508155008 9 0 0.0 0.0 0.00 0.00 0.00 82 1030.8
20260508154530 10 0 0.0 0.0 0.00 0.00 0.00 82 1030.7
20260508154010 10 0 0.0 0.0 0.00 0.00 0.00 82 1030.8
20260508153511 10 0 0.0 0.0 0.00 0.00 0.00 82 1030.9
20260508153034 10 0 0.0 0.0 0.00 0.00 0.00 82 1030.9
20260508152510 10 0 0.0 0.0 0.00 0.00 0.00 82 1031.0
20260508152012 10 0 0.0 0.0 0.00 0.00 0.00 82 1030.9
20260508151530 10 0 0.0 0.0 0.00 0.00 0.00 82 1031.0
20260508151011 10 0 0.0 0.0 0.00 0.00 0.00 82 1031.0
20260508150510 10 0 0.0 0.0 0.00 0.00 0.00 82 1031.0
20260508150030 10 0 0.0 0.0 0.00 0.00 0.00 82 1031.0
20260508145510 10 0 0.0 0.0 0.00 0.00 0.00 82 1031.1
20260508145011 10 0 0.0 0.0 0.00 0.00 0.00 82 1031.1
20260508144529 10 0 0.0 0.0 0.00 0.00 0.00 82 1031.1
20260508144007 10 0 0.0 0.0 0.00 0.00 0.00 82 1031.1
20260508143510 10 0 0.0 0.0 0.00 0.00 0.00 82 1031.2
20260508143028 10 0 0.0 0.0 0.00 0.00 0.00 81 1031.1
20260508142511 10 0 0.0 0.0 0.00 0.00 0.00 81 1031.1
20260508142011 10 0 0.0 0.0 0.00 0.00 0.00 81 1031.1
20260508141530 10 0 0.0 0.0 0.00 0.00 0.00 81 1031.1
20260508141010 10 0 0.0 0.0 0.00 0.00 0.00 81 1031.1
20260508140511 10 0 0.0 0.0 0.00 0.00 0.00 81 1031.1
20260508140029 10 0 0.0 0.0 0.00 0.00 0.00 81 1031.1
20260508135514 10 0 0.0 0.0 0.00 0.00 0.00 81 1031.2
20260508135011 11 0 0.0 0.0 0.00 0.00 0.00 81 1031.1
20260508134531 11 0 0.0 0.0 0.00 0.00 0.00 81 1031.2
20260508134010 11 0 0.0 0.0 0.00 0.00 0.00 80 1031.2
20260508133513 11 0 0.0 0.0 0.00 0.00 0.00 80 1031.3
20260508133028 11 0 0.0 0.0 0.00 0.00 0.00 80 1031.4
20260508132511 11 0 0.0 0.0 0.00 0.00 0.00 80 1031.4
20260508132010 11 0 0.0 0.0 0.00 0.00 0.00 80 1031.4
20260508131530 11 0 0.0 0.0 0.00 0.00 0.00 80 1031.5
20260508131010 11 0 0.0 0.0 0.00 0.00 0.00 80 1031.4
20260508130516 11 0 0.0 0.0 0.00 0.00 0.00 80 1031.5
20260508130031 11 0 0.0 0.0 0.00 0.00 0.00 80 1031.6
20260508125512 11 0 0.0 0.0 0.00 0.00 0.00 80 1031.6
20260508125010 11 0 0.0 0.0 0.00 0.00 0.00 80 1031.7
20260508124530 11 0 0.0 0.0 0.00 0.00 0.00 80 1031.6
20260508124009 11 0 0.0 0.0 0.00 0.00 0.00 80 1031.6
20260508123512 12 0 0.0 0.0 0.00 0.00 0.00 80 1031.7
20260508123028 12 0 0.0 0.0 0.00 0.00 0.00 80 1031.6
20260508122508 12 0 0.0 0.0 0.00 0.00 0.00 80 1031.7
20260508122013 12 0 0.0 0.0 0.00 0.00 0.00 80 1031.6
20260508121527 12 0 0.0 0.0 0.00 0.00 0.00 80 1031.7
20260508121011 12 0 0.0 1.6 0.00 0.00 0.00 80 1031.7
20260508120510 12 0 0.0 1.6 0.00 0.00 0.00 80 1031.7
20260508120036 12 0 0.0 1.6 0.00 0.00 0.00 80 1031.7
20260508115510 12 0 0.0 3.2 0.00 0.00 0.00 80 1031.7
20260508115008 12 0 0.0 3.2 0.00 0.00 0.00 79 1031.6
20260508114527 12 0 0.0 3.2 0.00 0.00 0.00 79 1031.7
20260508114014 12 0 0.0 1.6 0.00 0.00 0.00 79 1031.8
20260508113509 12 0 0.0 1.6 0.00 0.00 0.00 79 1031.7
20260508113030 12 0 0.0 0.0 0.00 0.00 0.00 79 1031.6
20260508112515 12 0 0.0 0.0 0.00 0.00 0.00 79 1031.6
20260508112008 12 0 0.0 0.0 0.00 0.00 0.00 79 1031.5
20260508111531 13 0 0.0 0.0 0.00 0.00 0.00 79 1031.5
20260508111008 13 0 0.0 0.0 0.00 0.00 0.00 79 1031.5
20260508110507 13 0 0.0 0.0 0.00 0.00 0.00 79 1031.5
20260508110029 13 0 0.0 0.0 0.00 0.00 0.00 79 1031.4
20260508105509 13 0 0.0 0.0 0.00 0.00 0.00 79 1031.5
20260508105012 13 0 0.0 0.0 0.00 0.00 0.00 79 1031.5
20260508104528 13 0 0.0 1.6 0.00 0.00 0.00 79 1031.5
20260508104008 13 0 0.0 1.6 0.00 0.00 0.00 79 1031.4
20260508103511 13 239 0.0 1.6 0.00 0.00 0.00 78 1031.5
20260508103026 13 0 0.0 1.6 0.00 0.00 0.00 78 1031.4
20260508102508 13 0 0.0 3.2 0.00 0.00 0.00 79 1031.5
20260508102013 14 0 0.0 3.2 0.00 0.00 0.00 79 1031.4
20260508101526 14 0 0.0 1.6 0.00 0.00 0.00 78 1031.4
20260508101008 14 0 0.0 1.6 0.00 0.00 0.00 78 1031.4
20260508100508 14 0 0.0 0.0 0.00 0.00 0.00 79 1031.3
20260508100027 14 0 0.0 0.0 0.00 0.00 0.00 79 1031.3
20260508095508 14 0 0.0 1.6 0.00 0.00 0.00 79 1031.2
20260508095008 15 0 0.0 1.6 0.00 0.00 0.00 79 1031.3
20260508094526 15 0 0.0 1.6 0.00 0.00 0.00 78 1031.4
20260508094009 15 0 0.0 1.6 0.00 0.00 0.00 78 1031.3